Latest Weather Observations for Nambour

IDQ60901

Issued at 7:01 pm EST Wednesday 29 June 2016 (issued every 10 minutes, with the page automatically refreshed every 10 minutes)

About weather observations | Map of Brisbane area stations | Latest observations for Brisbane area | Other Formats
Station Details ID: 040988 Name: NAMBOUR DAFF - HILLSIDE Lat: -26.64 Lon: 152.94 Height: 53.24 m
Data from the previous 72 hours. | See also: Recent months at Nambour
Date/Time
EST
Temp
°C
App
Temp
°C
Dew
Point
°C
Rel
Hum
%
Delta-T
°C
Wind Press
QNH
hPa
Press
MSL
hPa
Rain since
9am
mm
Dir  Spd
km/h
Gust
km/h
Spd
kts
Gust
kts
29/07:00pm 11.8 11.4 8.1 78 1.8 CALM 0 0 0 0 1025.5 1025.5 0.0
29/06:30pm 12.4 12.0 8.3 76 2.0 CALM 0 0 0 0 1025.3 1025.3 0.0
29/06:00pm 13.3 12.5 8.2 71 2.5 WSW 2 6 1 3 1025.1 1025.1 0.0
29/05:30pm 14.7 14.3 8.2 65 3.3 CALM 0 0 0 0 1024.9 1024.9 0.0
29/05:00pm 15.8 15.3 7.8 59 4.0 CALM 0 0 0 0 1024.6 1024.6 0.0
29/04:30pm 18.2 17.7 7.9 51 5.3 CALM 0 6 0 3 1024.3 1024.3 0.0
29/04:00pm 18.7 16.8 6.9 46 5.9 SE 6 9 3 5 1024.0 1024.0 0.0
29/03:30pm 19.9 18.2 5.9 40 7.0 ESE 4 9 2 5 1023.9 1023.9 0.0
29/03:00pm 20.1 18.3 5.4 38 7.2 ESE 4 13 2 7 1023.6 1023.6 0.0
29/02:30pm 20.3 18.3 6.3 40 7.0 ESE 6 13 3 7 1023.5 1023.5 0.0
29/02:00pm 20.3 18.4 6.6 41 6.9 ESE 6 13 3 7 1023.5 1023.5 0.0
29/01:30pm 20.4 18.7 6.0 39 7.2 ESE 4 13 2 7 1023.7 1023.7 0.0
29/01:00pm 20.1 18.1 7.1 43 6.6 ESE 7 15 4 8 1023.9 1023.9 0.0
29/12:30pm 19.9 18.3 7.9 46 6.2 ESE 6 13 3 7 1024.3 1024.3 0.0
29/12:00pm 19.3 17.3 7.1 45 6.2 SE 7 13 4 7 1024.8 1024.8 0.0
29/11:30am 18.9 16.5 7.0 46 6.0 SE 9 20 5 11 1025.5 1025.5 0.0
29/11:00am 19.0 16.6 7.1 46 6.0 ESE 9 15 5 8 1025.9 1025.9 0.0
29/10:30am 18.6 16.6 6.4 45 6.1 NE 6 15 3 8 1026.2 1026.2 0.0
29/10:00am 18.5 16.9 6.4 45 6.0 SSW 4 7 2 4 1026.3 1026.3 0.0
29/09:30am 18.4 16.9 6.6 46 5.9 S 4 13 2 7 1026.3 1026.3 0.0
29/09:00am 17.4 16.4 7.2 51 5.1 NE 2 6 1 3 1026.2 1026.2 0.0
29/08:30am 14.2 13.2 7.5 64 3.3 ENE 2 2 1 1 1025.9 1025.9 0.0
29/08:00am 12.1 11.5 7.2 72 2.4 CALM 0 2 0 1 1025.6 1025.6 0.0
29/07:30am 10.1 9.3 6.6 79 1.6 CALM 0 0 0 0 1025.5 1025.5 0.0
29/07:00am 7.8 6.7 4.9 82 1.3 CALM 0 0 0 0 1025.1 1025.1 0.0
29/06:30am 7.6 6.4 4.4 80 1.4 CALM 0 0 0 0 1024.9 1024.9 0.0
29/06:00am 8.0 6.9 4.9 81 1.4 CALM 0 0 0 0 1024.8 1024.8 0.0
29/05:30am 8.3 6.6 3.9 74 1.9 SW 2 4 1 2 1024.4 1024.4 0.0
29/05:00am 8.9 7.7 4.5 74 1.9 CALM 0 0 0 0 1024.2 1024.2 0.0
29/04:30am 9.2 7.4 3.6 68 2.4 S 2 4 1 2 1023.9 1023.9 0.0
29/04:00am 10.0 8.6 3.7 65 2.8 CALM 0 2 0 1 1023.7 1023.7 0.0
29/03:30am 10.6 9.3 3.9 63 3.0 CALM 0 2 0 1 1023.7 1023.7 0.0
29/03:00am 11.1 9.8 3.9 61 3.2 CALM 0 2 0 1 1023.5 1023.5 0.0
29/02:30am 11.3 9.9 3.6 59 3.4 CALM 0 4 0 2 1023.5 1023.5 0.0
29/02:00am 11.6 9.0 3.4 57 3.6 WSW 6 7 3 4 1023.7 1023.7 0.0
29/01:30am 11.6 9.0 3.4 57 3.6 SW 6 11 3 6 1023.9 1023.9 0.0
29/01:00am 12.4 8.8 3.1 53 4.1 SW 11 20 6 11 1024.0 1024.0 0.0
29/12:30am 12.5 9.3 3.2 53 4.1 SW 9 15 5 8 1024.2 1024.2 0.0
29/12:00am 12.2 9.5 2.9 53 4.1 SSW 6 13 3 7 1024.1 1024.1 0.0
 
Date/Time
EST
Temp
°C
App
Temp
°C
Dew
Point
°C
Rel
Hum
%
Delta-T
°C
Wind Press
QNH
hPa
Press
MSL
hPa
Rain since
9am
mm
Dir  Spd
km/h
Gust
km/h
Spd
kts
Gust
kts
28/11:30pm 12.8 10.0 2.9 51 4.4 SW 7 13 4 7 1024.0 1024.0 0.0
28/11:00pm 12.7 9.8 2.6 50 4.4 SW 7 15 4 8 1023.9 1023.9 0.0
28/10:30pm 13.0 9.7 2.6 49 4.6 SW 9 17 5 9 1024.0 1024.0 0.0
28/10:00pm 13.1 9.8 2.4 48 4.7 WSW 9 17 5 9 1023.9 1023.9 0.0
28/09:30pm 13.5 9.4 2.4 47 4.9 WSW 13 24 7 13 1023.7 1023.7 0.0
28/09:00pm 13.9 9.8 2.5 46 5.0 WSW 13 26 7 14 1023.9 1023.9 0.0
28/08:30pm 13.6 9.9 2.2 46 5.0 WSW 11 22 6 12 1023.8 1023.8 0.0
28/08:00pm 14.0 10.3 2.3 45 5.1 WSW 11 20 6 11 1023.6 1023.6 0.0
28/07:30pm 14.1 10.8 2.7 46 5.1 WSW 9 24 5 13 1023.4 1023.4 0.0
28/07:00pm 14.1 10.9 3.0 47 4.9 WSW 9 19 5 10 1023.2 1023.2 0.0
28/06:30pm 14.1 10.9 3.0 47 5.0 SW 9 17 5 9 1022.8 1022.8 0.0
28/06:00pm 14.2 10.7 3.4 48 4.9 WSW 11 20 6 11 1022.4 1022.4 0.0
28/05:30pm 14.2 11.1 3.4 48 4.9 SW 9 15 5 8 1022.1 1022.1 0.0
28/05:00pm 14.8 12.0 3.3 46 5.2 WSW 7 19 4 10 1021.6 1021.6 0.0
28/04:30pm 16.2 14.3 2.9 41 6.1 SW 2 6 1 3 1021.1 1021.1 0.0
28/04:00pm 17.0 14.4 3.0 39 6.4 SW 6 11 3 6 1020.9 1020.9 0.0
28/03:30pm 17.2 14.5 3.5 40 6.4 WSW 7 15 4 8 1020.6 1020.6 0.0
28/03:00pm 17.1 13.9 3.1 39 6.4 WSW 9 15 5 8 1020.4 1020.4 0.0
28/02:30pm 17.5 14.2 2.7 37 6.8 W 9 15 5 8 1020.3 1020.3 0.0
28/02:00pm 17.5 14.9 3.0 38 6.7 WSW 6 17 3 9 1020.3 1020.3 0.0
28/01:30pm 17.6 14.8 3.1 38 6.7 W 7 13 4 7 1020.1 1020.1 0.0
28/01:00pm 17.3 14.5 3.2 39 6.5 SW 7 15 4 8 1020.1 1020.1 0.0
28/12:30pm 16.6 13.1 3.3 41 6.1 WSW 11 19 6 10 1020.2 1020.2 0.0
28/12:00pm 16.0 12.3 2.4 40 6.1 WSW 11 28 6 15 1020.4 1020.4 0.0
28/11:30am 15.3 12.3 2.1 41 5.9 W 7 26 4 14 1020.8 1020.8 0.0
28/11:00am 14.9 12.1 2.1 42 5.6 W 6 13 3 7 1021.2 1021.2 0.0
28/10:30am 14.0 11.1 2.6 46 5.1 WSW 7 17 4 9 1021.4 1021.4 0.0
28/10:00am 13.3 9.4 1.3 44 5.1 WSW 11 26 6 14 1021.6 1021.6 0.0
28/09:30am 12.7 9.7 1.1 45 4.9 E 6 22 3 12 1021.5 1021.5 0.0
28/09:00am 11.8 8.8 1.7 50 4.3 SW 7 19 4 10 1021.4 1021.4 0.0
28/08:30am 11.0 7.5 1.3 51 4.1 SW 9 20 5 11 1021.3 1021.3 0.0
28/08:00am 10.3 6.9 1.7 55 3.6 SW 9 22 5 12 1021.1 1021.1 0.0
28/07:30am 9.5 6.0 1.2 56 3.4 WSW 9 20 5 11 1020.6 1020.6 0.0
28/07:00am 8.4 5.0 1.6 62 2.8 WSW 9 15 5 8 1020.4 1020.4 0.0
28/06:30am 8.1 4.3 1.5 63 2.7 WSW 11 19 6 10 1020.3 1020.3 0.0
28/06:00am 8.3 3.7 1.5 62 2.8 WSW 15 28 8 15 1019.9 1019.9 0.0
28/05:30am 8.6 3.2 1.3 60 3.0 WSW 19 32 10 17 1019.5 1019.5 0.0
28/05:00am 8.3 3.3 1.5 62 2.8 WSW 17 28 9 15 1019.0 1019.0 0.0
28/04:30am 8.5 4.7 1.6 62 2.8 WSW 11 22 6 12 1018.9 1018.9 0.0
28/04:00am 8.5 5.1 1.6 62 2.8 WSW 9 19 5 10 1019.1 1019.1 0.0
28/03:30am 8.6 4.0 1.5 61 2.9 WSW 15 32 8 17 1019.2 1019.2 0.0
28/03:00am 8.9 4.7 1.8 61 2.9 WSW 13 20 7 11 1019.1 1019.1 0.0
28/02:30am 9.3 5.2 2.4 62 2.9 W 13 26 7 14 1019.0 1019.0 0.0
28/02:00am 9.0 5.7 2.6 64 2.7 W 9 17 5 9 1019.0 1019.0 0.0
28/01:30am 9.0 6.1 2.6 64 2.7 WSW 7 17 4 9 1019.1 1019.1 0.0
28/01:00am 9.3 6.0 2.6 63 2.8 W 9 15 5 8 1019.0 1019.0 0.0
28/12:30am 10.0 6.8 2.8 61 3.1 WSW 9 17 5 9 1019.0 1019.0 0.0
28/12:00am 10.2 7.5 3.5 63 2.9 WSW 7 13 4 7 1018.8 1018.8 0.0
 
Date/Time
EST
Temp
°C
App
Temp
°C
Dew
Point
°C
Rel
Hum
%
Delta-T
°C
Wind Press
QNH
hPa
Press
MSL
hPa
Rain since
9am
mm
Dir  Spd
km/h
Gust
km/h
Spd
kts
Gust
kts
27/11:30pm 10.2 7.7 3.5 63 2.9 WSW 6 13 3 7 1018.9 1018.9 0.0
27/11:00pm 10.8 8.1 3.6 61 3.2 WSW 7 17 4 9 1019.0 1019.0 0.0
27/10:30pm 11.1 8.0 3.4 59 3.4 WSW 9 24 5 13 1019.0 1019.0 0.0
27/10:00pm 11.4 8.6 3.2 57 3.6 SW 7 26 4 14 1018.9 1018.9 0.0
27/09:30pm 11.6 8.8 3.1 56 3.7 SW 7 19 4 10 1018.8 1018.8 0.0
27/09:00pm 11.8 8.3 3.6 57 3.6 WSW 11 19 6 10 1018.3 1018.2 0.0
27/08:30pm 12.2 9.6 4.2 58 3.6 SW 7 19 4 10 1018.2 1018.1 0.0
27/08:00pm 12.5 9.6 4.5 58 3.6 WSW 9 19 5 10 1018.0 1017.9 0.0
27/07:30pm 12.9 10.5 5.1 59 3.6 SW 7 22 4 12 1017.7 1017.6 0.0
27/07:00pm 13.3 10.8 4.7 56 4.0 W 7 17 4 9 1017.3 1017.2 0.0
27/06:30pm 14.2 10.8 5.8 57 4.0 WSW 13 30 7 16 1017.2 1017.1 0.0
27/06:00pm 14.6 12.6 6.2 57 4.0 WSW 6 11 3 6 1016.7 1016.6 0.0
27/05:30pm 15.3 12.5 6.8 57 4.2 SW 11 20 6 11 1016.3 1016.2 0.0
27/05:00pm 15.9 14.7 8.2 60 3.9 S 4 7 2 4 1015.8 1015.7 0.0
27/04:30pm 16.9 15.8 8.6 58 4.3 WSW 4 6 2 3 1015.4 1015.3 0.0
27/04:00pm 18.2 17.3 9.3 56 4.7 NW 4 9 2 5 1015.1 1015.0 0.0
27/03:30pm 18.2 17.1 10.1 59 4.3 W 6 9 3 5 1015.1 1015.0 0.0
27/03:00pm 17.6 15.9 10.0 61 4.0 WSW 9 15 5 8 1015.0 1014.9 0.0
27/02:30pm 19.2 18.0 10.2 56 4.8 W 7 13 4 7 1014.5 1014.4 0.0
27/02:00pm 19.3 18.4 10.6 57 4.7 N 6 13 3 7 1014.4 1014.3 0.0
27/01:30pm 18.9 17.4 10.7 59 4.4 NW 9 17 5 9 1014.6 1014.5 0.0
27/01:00pm 17.6 16.7 10.5 63 3.8 W 6 13 3 7 1014.8 1014.7 0.0
27/12:30pm 17.3 15.1 10.9 66 3.4 WSW 13 20 7 11 1015.3 1015.2 0.0
27/12:00pm 18.6 17.2 10.9 61 4.2 WNW 9 20 5 11 1015.3 1015.2 0.0
27/11:30am 18.9 17.5 11.0 60 4.3 W 9 22 5 12 1015.7 1015.6 0.0
27/11:00am 17.9 18.1 11.7 67 3.4 NE 2 6 1 3 1016.0 1015.9 0.0
27/10:30am 16.9 17.3 11.4 70 3.0 CALM 0 0 0 0 1016.6 1016.5 0.0
27/10:00am 16.3 16.7 11.2 72 2.7 CALM 0 2 0 1 1016.9 1016.8 0.0
27/09:30am 15.8 16.6 12.4 80 1.9 CALM 0 0 0 0 1017.1 1017.0 0.0
27/09:00am 15.0 15.7 12.3 84 1.5 CALM 0 0 0 0 1017.3 1017.2 0.0
27/08:30am 14.5 15.1 12.0 85 1.4 CALM 0 0 0 0 1017.5 1017.4 0.0
27/08:00am 14.4 14.9 11.6 83 1.5 CALM 0 0 0 0 1017.4 1017.3 0.0
27/07:30am 13.8 14.1 11.0 83 1.5 CALM 0 2 0 1 1017.1 1017.0 0.0
27/07:00am 14.3 14.7 11.1 81 1.7 CALM 0 4 0 2 1016.9 1016.8 0.0
27/06:30am 14.1 14.4 10.9 81 1.7 CALM 0 2 0 1 1016.4 1016.3 0.0
27/06:00am 14.7 14.9 10.5 76 2.2 CALM 0 0 0 0 1016.2 1016.1 0.0
27/05:30am 14.9 14.3 10.3 74 2.4 NNW 4 7 2 4 1015.9 1015.8 0.0
27/05:00am 13.9 13.7 10.5 80 1.8 NNE 2 6 1 3 1015.4 1015.3 0.0
27/04:30am 14.1 14.3 10.7 80 1.8 CALM 0 0 0 0 1015.3 1015.2 0.0
27/04:00am 13.8 14.0 10.6 81 1.7 CALM 0 0 0 0 1015.6 1015.5 0.0
27/03:30am 13.6 13.9 10.8 83 1.5 CALM 0 4 0 2 1015.3 1015.2 0.0
27/03:00am 13.0 13.4 11.1 88 1.0 CALM 0 0 0 0 1015.4 1015.3 0.0
27/02:30am 13.0 13.3 10.9 87 1.1 CALM 0 2 0 1 1015.6 1015.5 0.0
27/02:00am 12.6 12.6 11.0 90 0.8 ENE 2 6 1 3 1015.6 1015.5 0.0
27/01:30am 13.0 13.5 11.6 91 0.7 CALM 0 0 0 0 1016.6 1016.5 0.0
27/01:00am 12.8 13.1 11.0 89 0.9 CALM 0 0 0 0 1016.7 1016.6 0.0
27/12:30am 12.8 13.0 10.5 86 1.2 CALM 0 0 0 0 1016.9 1016.8 0.0
27/12:00am 12.7 12.9 10.4 86 1.2 CALM 0 0 0 0 1017.1 1017.0 0.0
 
Date/Time
EST
Temp
°C
App
Temp
°C
Dew
Point
°C
Rel
Hum
%
Delta-T
°C
Wind Press
QNH
hPa
Press
MSL
hPa
Rain since
9am
mm
Dir  Spd
km/h
Gust
km/h
Spd
kts
Gust
kts
26/11:30pm 12.9 13.1 10.4 85 1.3 CALM 0 0 0 0 1017.2 1017.1 0.0
26/11:00pm 12.9 13.0 10.1 83 1.4 CALM 0 0 0 0 1017.3 1017.2 0.0
26/10:30pm 12.7 12.8 10.2 85 1.3 CALM 0 0 0 0 1017.5 1017.4 0.0
26/10:00pm 13.0 13.1 10.0 82 1.5 CALM 0 0 0 0 1017.9 1017.8 0.0
26/09:30pm 12.9 12.9 9.9 82 1.5 CALM 0 0 0 0 1018.0 1017.9 0.0
26/09:00pm 13.0 13.1 10.0 82 1.5 CALM 0 0 0 0 1018.1 1018.0 0.0
26/08:30pm 13.2 13.3 10.0 81 1.7 CALM 0 0 0 0 1018.3 1018.2 0.0
26/08:00pm 13.3 13.3 9.9 80 1.7 CALM 0 0 0 0 1018.5 1018.4 0.0
26/07:30pm 13.4 13.4 9.8 79 1.9 CALM 0 0 0 0 1018.7 1018.7 0.0

Latest Capital City Observations: Canberra | Sydney | Melbourne | Brisbane | Adelaide | Perth | Hobart | Darwin

Other Formats:

Comma delimited format used in spreadsheet applications
http://www.bom.gov.au/fwo/IDQ60901/IDQ60901.95572.axf

JavaScript Object Notation format (JSON) in row-major order
http://www.bom.gov.au/fwo/IDQ60901/IDQ60901.95572.json